<?xml version="1.0" encoding="UTF-8" standalone="no" ?>
<gpx xmlns="http://www.topografix.com/GPX/1/1" xmlns:xsi="http://www.w3.org/2001/XMLSchema-instance" xsi:schemaLocation="http://www.topografix.com/GPX/1/1 http://www.topografix.com/GPX/1/1/gpx.xsd" version="1.1" creator="VisuGPX - https://www.visugpx.com">
  <metadata>
    <name>CSJC La Romieu - Condom</name>
    <desc><![CDATA[Chemin de Saint Jacques de Compostelle du Puy
Etape : La Romieu - Condom]]></desc>
  </metadata>
  <trk>
    <name><![CDATA[ACTIVE LOG091124]]></name>
    <trkseg>
      <trkpt lat="43.98289" lon="0.49725">
        <ele>184</ele>
        <time>2014-06-23T07:11:24Z</time>
      </trkpt>
      <trkpt lat="43.98205" lon="0.4975">
        <ele>190</ele>
        <time>2014-06-23T07:11:40Z</time>
      </trkpt>
      <trkpt lat="43.98205" lon="0.49749">
        <ele>190</ele>
        <time>2014-06-23T07:11:41Z</time>
      </trkpt>
      <trkpt lat="43.98192" lon="0.49748">
        <ele>190</ele>
        <time>2014-06-23T07:11:56Z</time>
      </trkpt>
      <trkpt lat="43.98215" lon="0.49749">
        <ele>190</ele>
        <time>2014-06-23T07:12:21Z</time>
      </trkpt>
      <trkpt lat="43.98215" lon="0.49745">
        <ele>190</ele>
        <time>2014-06-23T07:12:39Z</time>
      </trkpt>
      <trkpt lat="43.98218" lon="0.49745">
        <ele>190</ele>
        <time>2014-06-23T07:12:56Z</time>
      </trkpt>
      <trkpt lat="43.9822" lon="0.49745">
        <ele>190</ele>
        <time>2014-06-23T07:13:14Z</time>
      </trkpt>
      <trkpt lat="43.98229" lon="0.49744">
        <ele>190</ele>
        <time>2014-06-23T07:13:33Z</time>
      </trkpt>
      <trkpt lat="43.98207" lon="0.49742">
        <ele>190</ele>
        <time>2014-06-23T07:13:52Z</time>
      </trkpt>
      <trkpt lat="43.98207" lon="0.49735">
        <ele>190</ele>
        <time>2014-06-23T07:14:04Z</time>
      </trkpt>
      <trkpt lat="43.98207" lon="0.49734">
        <ele>190</ele>
        <time>2014-06-23T07:14:05Z</time>
      </trkpt>
      <trkpt lat="43.98207" lon="0.49733">
        <ele>190</ele>
        <time>2014-06-23T07:14:06Z</time>
      </trkpt>
      <trkpt lat="43.98209" lon="0.49729">
        <ele>189</ele>
        <time>2014-06-23T07:14:12Z</time>
      </trkpt>
      <trkpt lat="43.98212" lon="0.49728">
        <ele>189</ele>
        <time>2014-06-23T07:14:14Z</time>
      </trkpt>
      <trkpt lat="43.98213" lon="0.49726">
        <ele>189</ele>
        <time>2014-06-23T07:14:15Z</time>
      </trkpt>
      <trkpt lat="43.98214" lon="0.49714">
        <ele>189</ele>
        <time>2014-06-23T07:14:26Z</time>
      </trkpt>
      <trkpt lat="43.98217" lon="0.497">
        <ele>189</ele>
        <time>2014-06-23T07:14:37Z</time>
      </trkpt>
      <trkpt lat="43.98217" lon="0.49695">
        <ele>189</ele>
        <time>2014-06-23T07:14:40Z</time>
      </trkpt>
      <trkpt lat="43.98221" lon="0.49674">
        <ele>188</ele>
        <time>2014-06-23T07:14:53Z</time>
      </trkpt>
      <trkpt lat="43.98224" lon="0.49665">
        <ele>187</ele>
        <time>2014-06-23T07:15:01Z</time>
      </trkpt>
      <trkpt lat="43.98229" lon="0.49648">
        <ele>187</ele>
        <time>2014-06-23T07:15:12Z</time>
      </trkpt>
      <trkpt lat="43.98232" lon="0.49629">
        <ele>187</ele>
        <time>2014-06-23T07:15:24Z</time>
      </trkpt>
      <trkpt lat="43.98234" lon="0.49614">
        <ele>186</ele>
        <time>2014-06-23T07:15:39Z</time>
      </trkpt>
      <trkpt lat="43.9823" lon="0.49618">
        <ele>187</ele>
        <time>2014-06-23T07:15:52Z</time>
      </trkpt>
    </trkseg>
  </trk>
</gpx>